World > North America > United States > Illinois > Marion   City of Marion, IL

Marion, IL Hourly Weather Updates

Feedback E-mail the Weather

Quick Clicks

Marion, IL Weather Maps

°F °C°F °C
Marion Weather Map
UTC Time: 6/22/2024, 13:38
Your Time:

Marion, IL Regional Weather

Expires:202406221400;;466306
ASUS43 KLOT 221310
RWRIL 

ILLINOIS REGIONAL WEATHER ROUNDUP
NATIONAL WEATHER SERVICE CHICAGO/ROMEOVILLE IL
800 AM CDT SAT JUN 22 2024

NOTE: "FAIR" INDICATES FEW OR NO CLOUDS BELOW 12,000 FEET WITH NO
SIGNIFICANT WEATHER AND/OR OBSTRUCTIONS TO VISIBILITY.

* THESE STATIONS ARE NOT UNDER NWS QUALITY CONTROL. THEY ALSO MAY NOT
  REPORT WEATHER SUCH AS PRECIPITATION OR FOG.


ILZ064>066-069>071-074>076-080>082-084>086-088>090-092>094-221400-
SOUTH-CENTRAL ILLINOIS
  
CITY           SKY/WX    TMP DP  RH WIND       PRES   REMARKS
CARBONDALE     SUNNY     80  71  74 S6        30.08F HX  84  TC  27   
CAIRO*         MOSUNNY   79  74  84 CALM      30.10S HX  83  TC  26   
EFFINGHAM*     MOSUNNY   80  70  72 S3        30.09F HX  82  TC  26   
MARION         MOSUNNY   79  72  78 S6        30.09S HX  82  TC  26   
MT. VERNON     MOSUNNY   80  72  76 S5        30.09S HX  84  TC  27   
CENTRALIA*     SUNNY     82  69  64 SW6       30.08S HX  85  TC  28   
SALEM*         MOSUNNY   82  69  65 S8        30.08S HX  85  TC  28   
METROPOLIS*    MOSUNNY   79  69  72 CALM      30.10S HX  81  TC  26   
$$


SKY/WX - Weather  TMP - Temperature  DP - Dew Point  RH - Humidity
WIND - Wind Direction/Speed PRES - Barometric Pressure VSB - Visibility
WCI - Wind Chill Index E13G22 Wind - East Wind 13 mph/Gusts of 22 mph

Trending Headlines

Trending Entertainment Headlines

Marion Radar Loop

Use the map search tool if you want to place a location marker on the radar map...

Marion Quick Facts

National Two Day Weather Forecast


E-mail the Marion Weather Forecast

Voice your opinion or tell us about page issues...